Total_Precipitation_Accumulation
2.44 2.33 2.17 2.01 2.00 2.02 2.09 2.27 2.55 2.42 1.92 1.52 1.50 1.54 1.61 1.78 2.10 1.96 1.79 2.10 2.14 2.16 2.29 2.39 2.34 2.37 2.51 2.57 2.67 2.86 3.02 3.10 3.10 3.05 3.00 2.87 2.83 3.02
2.19 2.24 2.17 2.01 1.98 1.99 2.08 2.19 2.35 2.49 2.25 1.64 1.47 1.53 1.69 1.81 2.12 1.96 1.88 2.12 2.05 2.07 2.07 2.10 2.06 2.06 2.13 2.27 2.28 2.28 2.36 2.57 2.76 2.83 2.90 2.98 2.96 2.94
1.96 2.03 2.02 1.92 1.95 1.93 1.96 2.06 2.18 2.35 2.38 1.88 1.58 1.60 1.77 1.81 1.84 1.76 1.72 1.72 1.69 1.90 1.83 1.84 1.86 1.85 1.82 1.93 2.06 2.06 2.05 2.15 2.37 2.55 2.67 2.74 2.81 2.80
1.81 1.88 1.90 1.88 1.92 1.93 1.99 2.03 2.04 2.09 2.19 2.03 1.72 1.61 1.61 1.60 1.57 1.56 1.54 1.46 1.40 1.67 1.67 1.63 1.64 1.64 1.58 1.56 1.72 1.83 1.82 1.82 1.93 2.05 2.21 2.32 2.37 2.51
1.78 1.82 1.84 1.92 1.96 1.94 1.98 2.02 1.98 1.90 1.87 1.86 1.65 1.47 1.45 1.47 1.55 1.49 1.46 1.45 1.31 1.47 1.59 1.58 1.57 1.50 1.49 1.47 1.49 1.59 1.63 1.64 1.64 1.72 1.85 2.03 2.10 2.14
1.81 1.81 1.82 1.92 2.01 2.04 2.06 2.03 1.97 1.93 1.84 1.80 1.70 1.53 1.46 1.43 1.55 1.59 1.55 1.50 1.41 1.28 1.47 1.53 1.55 1.53 1.45 1.39 1.34 1.31 1.38 1.53 1.60 1.66 1.71 1.78 1.91 1.99
1.79 1.82 1.84 1.97 2.04 2.02 1.94 1.84 1.79 1.83 1.78 1.75 1.66 1.53 1.45 1.46 1.50 1.43 1.40 1.41 1.44 1.33 1.34 1.37 1.37 1.35 1.34 1.37 1.37 1.35 1.36 1.45 1.58 1.65 1.70 1.72 1.75 1.85
1.68 1.68 1.72 1.81 1.74 1.76 1.74 1.67 1.70 1.82 1.83 1.70 1.53 1.36 1.18 1.14 1.19 1.32 1.41 1.56 1.62 1.35 1.27 1.33 1.31 1.40 1.30 1.26 1.39 1.37 1.35 1.47 1.59 1.66 1.72 1.76 1.76 1.77
1.56 1.55 1.51 1.45 1.49 1.34 1.42 1.45 1.43 1.49 1.51 1.47 1.45 1.20 1.04 1.00 1.20 1.41 1.46 1.44 1.32 1.18 1.28 1.46 1.36 1.35 1.21 1.24 1.42 1.36 1.33 1.40 1.55 1.67 1.74 1.80 1.83 1.82
1.35 1.32 1.32 1.26 1.27 1.33 1.35 1.37 1.22 1.14 1.12 1.06 1.04 0.99 1.00 1.09 1.30 1.53 1.60 1.64 1.44 1.26 1.31 1.57 1.42 1.33 1.21 1.19 1.35 1.35 1.34 1.36 1.46 1.62 1.74 1.79 1.81 1.83
1.12 1.10 1.15 1.15 1.28 1.49 1.48 1.43 1.29 1.16 1.15 1.20 1.19 1.19 1.29 1.40 1.51 1.75 1.94 2.11 1.96 1.52 1.30 1.37 1.28 1.26 1.30 1.29 1.34 1.43 1.39 1.36 1.38 1.51 1.67 1.77 1.79 1.84
0.97 0.99 1.13 1.19 1.38 1.58 1.56 1.50 1.44 1.22 1.17 1.23 1.25 1.24 1.20 1.26 1.43 1.44 1.61 2.00 1.98 1.67 1.22 1.24 1.25 1.41 1.73 1.43 1.32 1.38 1.39 1.43 1.45 1.48 1.57 1.72 1.86 1.89
1.03 0.97 0.99 1.21 1.38 1.56 1.63 1.52 1.44 1.37 1.32 1.35 1.38 1.35 1.32 1.33 1.31 1.27 1.32 1.65 1.97 1.68 1.16 1.41 1.63 1.54 1.83 1.58 1.33 1.35 1.34 1.34 1.42 1.51 1.57 1.67 1.85 2.00
1.11 0.95 0.94 1.17 1.37 1.51 1.56 1.56 1.62 1.64 1.54 1.53 1.54 1.48 1.39 1.31 1.23 1.20 1.25 1.32 1.45 1.45 1.21 1.55 2.04 1.81 2.01 1.79 1.40 1.32 1.29 1.29 1.34 1.42 1.51 1.72 1.84 1.98
1.06 1.08 1.16 1.27 1.35 1.37 1.41 1.49 1.54 1.52 1.54 1.53 1.43 1.28 1.15 1.11 1.16 1.26 1.35 1.38 1.41 1.37 1.32 1.39 1.64 1.77 2.10 2.12 1.60 1.29 1.32 1.36 1.36 1.45 1.55 1.69 1.79 1.94
1.16 1.16 1.23 1.30 1.33 1.32 1.36 1.37 1.38 1.41 1.45 1.40 1.25 1.16 1.16 1.23 1.32 1.35 1.46 1.53 1.69 1.58 1.37 1.29 1.37 1.72 2.04 1.74 1.67 1.51 1.31 1.44 1.41 1.51 1.64 1.70 1.70 1.74
1.42 1.43 1.36 1.31 1.33 1.31 1.27 1.28 1.33 1.42 1.47 1.35 1.34 1.36 1.36 1.36 1.37 1.35 1.47 1.59 1.70 1.49 1.35 1.34 1.43 1.59 1.74 1.77 1.81 1.53 1.38 1.37 1.36 1.53 1.82 1.95 1.82 1.74
1.68 1.56 1.32 1.18 1.14 1.14 1.16 1.22 1.28 1.32 1.33 1.38 1.45 1.49 1.50 1.48 1.48 1.45 1.52 1.66 1.64 1.40 1.30 1.34 1.57 1.92 1.96 1.77 1.53 1.38 1.37 1.39 1.39 1.53 1.79 2.11 1.94 1.64
1.61 1.32 1.13 1.07 1.06 1.08 1.13 1.18 1.23 1.22 1.32 1.47 1.53 1.53 1.57 1.60 1.61 1.60 1.58 1.66 1.64 1.49 1.38 1.40 1.70 2.24 2.40 1.73 1.28 1.15 1.33 1.50 1.57 1.68 1.75 1.90 1.93 1.63
1.35 1.17 1.10 1.08 1.10 1.15 1.20 1.25 1.27 1.30 1.41 1.49 1.51 1.52 1.60 1.72 1.75 1.65 1.58 1.62 1.66 1.63 1.58 1.50 1.60 1.98 2.42 2.00 1.61 1.22 1.17 1.50 1.87 1.97 1.74 1.62 1.64 1.59
1.13 1.09 1.09 1.13 1.18 1.23 1.28 1.32 1.38 1.41 1.40 1.47 1.48 1.48 1.56 1.75 1.73 1.54 1.56 1.63 1.75 1.76 1.65 1.39 1.26 1.49 2.00 2.48 2.23 1.46 1.30 1.36 1.64 2.12 2.22 2.26 2.06 1.80
1.11 1.12 1.12 1.17 1.24 1.30 1.34 1.40 1.45 1.43 1.44 1.47 1.46 1.46 1.53 1.68 1.70 1.58 1.61 1.72 1.67 1.59 1.50 1.38 1.41 1.71 2.18 2.53 2.00 1.39 1.33 1.39 1.47 1.55 1.83 2.34 2.92 2.61
1.21 1.24 1.22 1.24 1.29 1.35 1.39 1.39 1.41 1.37 1.35 1.42 1.46 1.48 1.56 1.66 1.59 1.60 1.62 1.66 1.73 1.73 1.73 1.72 1.68 1.76 1.83 1.84 1.82 1.57 1.42 1.39 1.43 1.50 1.56 1.51 1.52 1.60